Tracking 23099 objects as of 14-May-2021
HD Live streaming from Space Station
objects crossing your sky now

PROX-1 (NANOSAT-7)

Track PROX-1 (NANOSAT-7) now!
10-day predictions
PROX-1 (NANOSAT-7) is classified as:


NORAD ID: 44339
Int'l Code: 2019-036A
Perigee: 713.5 km
Apogee: 729.0 km
Inclination: 24.0 °
Period: 99.1 minutes
Semi major axis: 7092 km
RCS: Unknown
Launch date: June 25, 2019
Source: United States (US)
Launch site: AIR FORCE EASTERN TEST RANGE (AFETR)

Uplink (MHz): 437.345
Downlink (MHz): 2300.000
Beacon (MHz):
Mode:
Call sign:
Status: Unknown

aabbcc
Your satellite tracking list
Your tracking list is empty




NASA's NSSDC Master Catalog

Two Line Element Set (TLE):
1 44339U 19036A   21132.53077881  .00001007  00000-0  18688-3 0  9992
2 44339  23.9990 200.4468 0010867 144.5608 215.5606 14.53538974 99957
Source of the keplerian elements: AFSPC